This is the latest recevied weather packets stored in our database for station/object K9MWD. If no packets are shown the sender has not sent any weather packets the latest 1 day(s).
| Time | Temp. | Humidity | Pressure | Rain* | Wind** | Luminosity | Snow |
|---|---|---|---|---|---|---|---|
| 1778073572 | 13.89° C | 78% | 1012.8 hPa | 0 mm | - | 80 W/m² | - |
| 1778072360 | 13.89° C | 78% | 1012.9 hPa | 0 mm | - | 48 W/m² | - |
| 1778071756 | 13.89° C | 78% | 1012.6 hPa | 0 mm | - | 54 W/m² | - |
| 1778071151 | 13.89° C | 78% | 1012.4 hPa | 0 mm | - | 44 W/m² | - |
| 1778070849 | 13.89° C | 78% | 1012.3 hPa | 0 mm | - | 37 W/m² | - |
| 1778069941 | 13.89° C | 78% | 1012.1 hPa | 0 mm | - | 19 W/m² | - |
| 1778069334 | 13.89° C | 78% | 1012.1 hPa | 0 mm | - | 10 W/m² | - |
| 1778069032 | 14.44° C | 79% | 1012.1 hPa | 0 mm | - | 9 W/m² | - |
| 1778065705 | 15° C | 81% | 1011.1 hPa | 0 mm | - | 0 W/m² | - |
| 1778064795 | 15° C | 80% | 1010.9 hPa | 0 mm | - | 0 W/m² | - |
| 1778063888 | 15° C | 80% | 1010.8 hPa | 0 mm | - | 0 W/m² | - |
| 1778063585 | 15.56° C | 80% | 1010.3 hPa | 0 mm | - | 0 W/m² | - |
| 1778062373 | 16.11° C | 78% | 1010.1 hPa | 0 mm | - | 0 W/m² | - |
| 1778062071 | 16.11° C | 78% | 1010 hPa | 0 mm | - | 0 W/m² | - |
| 1778061769 | 16.11° C | 78% | 1010.1 hPa | 0 mm | - | 0 W/m² | - |
| 1778061164 | 16.67° C | 77% | 1009.9 hPa | 0 mm | - | 0 W/m² | - |
| 1778060559 | 16.67° C | 77% | 1009.7 hPa | 0 mm | - | 0 W/m² | - |
| 1778059954 | 16.67° C | 77% | 1009.9 hPa | 0 mm | - | 0 W/m² | - |
| 1778059652 | 17.22° C | 77% | 1009.7 hPa | 0 mm | - | 0 W/m² | - |
| 1778058744 | 17.22° C | 78% | 1009.8 hPa | 0 mm | - | 0 W/m² | - |
| 1778056016 | 17.78° C | 76% | 1009 hPa | 0 mm | - | 0 W/m² | - |
| 1778055711 | 17.78° C | 76% | 1009 hPa | 0 mm | - | 0 W/m² | - |
| 1778054805 | 18.33° C | 76% | 1009 hPa | 0 mm | - | 0 W/m² | - |
| 1778054501 | 18.33° C | 76% | 1009.2 hPa | 0 mm | - | 0 W/m² | - |
| 1778054199 | 18.33° C | 76% | 1009.3 hPa | 0 mm | - | 0 W/m² | - |
* Rain latest hour (hover to see other rain measurements)
** Current wind speed in m/s (hover to see current wind gust speed)